Regional Weather Roundup
Issued by NWS

Home | Current Version | Previous Version | Graphics & Text | Print | Product List | Glossary On
Versions: 1 2 3 4 5 6 7 8 9 10 11 12 13 14 15 16 17 18 19 20 21 22 23 24 25 26 27 28 29 30 31 32 33 34 35 36 37 38 39 40 41 42 43 44 45 46 47 48 49 50
000
ASUS45 KBOI 021910
RWRID
WEATHER ROUNDUP FOR IDAHO
NATIONAL WEATHER SERVICE BOISE ID
100 PM MDT SAT MAY 02 2015

NOTE: "FAIR" INDICATES FEW OR NO CLOUDS BELOW 12000 FEET
WITH NO SIGNIFICANT WEATHER AND/OR OBSTRUCTIONS TO VISIBILITY

IDZ012-014-022000-
SOUTHWEST IDAHO


CITY           SKY/WX    TMP DP  RH WIND       PRES   REMARKS
BOISE          SUNNY     71  27  19 VRB3      29.88F
CALDWELL       SUNNY     70  37  30 NW6       29.89F
MOUNTAIN HOME  SUNNY     74  23  15 VRB7      29.86F
$$

IDZ016-017-022000-
SOUTHCENTRAL IDAHO


CITY           SKY/WX    TMP DP  RH WIND       PRES   REMARKS
BURLEY         SUNNY     77  32  19 W12G20    29.86F
JEROME         SUNNY     74  28  18 W16       29.89F
TWIN FALLS     SUNNY     76  35  22 NW10      29.89F
$$

IDZ019>023-022000-
SOUTHEAST IDAHO


CITY           SKY/WX    TMP DP  RH WIND       PRES   REMARKS
IDAHO FALLS    MOSUNNY   76  30  18 SW14G24   29.88F
POCATELLO      MOSUNNY   77  31  18 W14G21    29.89F
REXBURG        MOSUNNY   72  27  18 SW14G22   29.88F
$$

IDZ006-010-011-018-031-032-022000-
CENTRAL IDAHO MOUNTAINS


CITY           SKY/WX    TMP DP  RH WIND       PRES   REMARKS
MCCALL         MOSUNNY   63  29  27 W8        29.92S
HAILEY         MOSUNNY   70  30  23 SE15      29.93F
STANLEY          N/A     64  19  17 NW13G22   29.97S
SALMON         PTSUNNY   63  25  23 CALM      29.83F
CHALLIS        MOSUNNY   69  16  13 W25G38    29.86F
$$

IDZ002-004-006-007-026-022000-
NORTHERN IDAHO


CITY           SKY/WX    TMP DP  RH WIND       PRES   REMARKS
LEWISTON       MOSUNNY   66  28  24 NW8G18    29.96R
LOWELL           N/A     71  35  26 CALM      29.92S
COEUR D`ALENE  SUNNY     61  27  27 W9G20     29.95S
MULLAN PASS    SUNNY     47  19  33 VRB5      29.95R
$$


USA.gov is the U.S. government's official web portal to all federal, state and local government web resources and services.